Stündliche Wetter Otrada

Heute, 15 April, Donnerstag

Zeit Temperatur Niederschläge Wind Luftdruck Luftfeuchtigkeit
00:00 +12°C° 0 mm 3 m/S 748 mmHg 58%
01:00 +11°C° 0 mm 3 m/S 747 mmHg 61%
02:00 +11°C° 0 mm 3 m/S 747 mmHg 63%
03:00 +10°C° 0 mm 3 m/S 747 mmHg 66%
04:00 +10°C° 0 mm 3 m/S 747 mmHg 67%
05:00 +10°C° 0 mm 2 m/S 747 mmHg 68%
06:00 +10°C° 0 mm 2 m/S 747 mmHg 69%
07:00 +12°C° 0 mm 2 m/S 747 mmHg 64%
08:00 +13°C° 0 mm 3 m/S 747 mmHg 58%
09:00 +16°C° 0 mm 3 m/S 747 mmHg 53%
10:00 +17°C° 0 mm 3 m/S 747 mmHg 50%
11:00 +18°C° 0 mm 3 m/S 747 mmHg 46%
12:00 +19°C° 0 mm 3 m/S 747 mmHg 43%
13:00 +20°C° 0 mm 3 m/S 747 mmHg 42%
14:00 +20°C° 0 mm 3 m/S 747 mmHg 42%
15:00 +20°C° 0 mm 3 m/S 746 mmHg 41%
16:00 +19°C° 0 mm 3 m/S 747 mmHg 47%
17:00 +18°C° 0 mm 3 m/S 747 mmHg 53%
18:00 +17°C° 0 mm 4 m/S 747 mmHg 58%
19:00 +15°C° 0.3 mm 4 m/S 747 mmHg 64%
20:00 +14°C° 0.3 mm 4 m/S 747 mmHg 70%
21:00 +13°C° 0.3 mm 4 m/S 747 mmHg 75%
22:00 +12°C° 0.2 mm 3 m/S 747 mmHg 76%
23:00 +13°C° 0.2 mm 2 m/S 747 mmHg 76%

Morgen, 16 April, Freitag

Zeit Temperatur Niederschläge Wind Luftdruck Luftfeuchtigkeit
00:00 +12°C° 0.2 mm 0 m/S 747 mmHg 76%
01:00 +12°C° 0 mm 1 m/S 747 mmHg 77%
02:00 +12°C° 0 mm 1 m/S 747 mmHg 77%
03:00 +12°C° 0 mm 2 m/S 747 mmHg 78%
04:00 +12°C° 0 mm 2 m/S 747 mmHg 78%
05:00 +11°C° 0 mm 1 m/S 748 mmHg 79%
06:00 +11°C° 0 mm 1 m/S 748 mmHg 79%
07:00 +12°C° 0 mm 1 m/S 748 mmHg 74%
08:00 +14°C° 0 mm 1 m/S 748 mmHg 69%
09:00 +15°C° 0 mm 1 m/S 748 mmHg 64%
10:00 +16°C° 0 mm 1 m/S 748 mmHg 60%
11:00 +18°C° 0 mm 1 m/S 748 mmHg 56%
12:00 +18°C° 0 mm 2 m/S 748 mmHg 51%
13:00 +18°C° 0.1 mm 2 m/S 748 mmHg 49%
14:00 +18°C° 0.1 mm 2 m/S 748 mmHg 48%
15:00 +19°C° 0.1 mm 2 m/S 748 mmHg 46%
16:00 +18°C° 0.3 mm 2 m/S 748 mmHg 53%
17:00 +16°C° 0.3 mm 2 m/S 748 mmHg 59%
18:00 +15°C° 0.3 mm 2 m/S 748 mmHg 66%
19:00 +15°C° 0.4 mm 2 m/S 748 mmHg 68%
20:00 +14°C° 0.4 mm 2 m/S 748 mmHg 70%
21:00 +13°C° 0.4 mm 2 m/S 748 mmHg 72%
22:00 +13°C° 0 mm 2 m/S 748 mmHg 73%
23:00 +12°C° 0 mm 1 m/S 748 mmHg 73%

übermorgen, 17 April, Samstag

Zeit Temperatur Niederschläge Wind Luftdruck Luftfeuchtigkeit
00:00 +12°C° 0 mm 1 m/S 748 mmHg 74%
01:00 +12°C° 0.1 mm 1 m/S 748 mmHg 75%
02:00 +12°C° 0.1 mm 1 m/S 748 mmHg 76%
03:00 +11°C° 0.1 mm 1 m/S 748 mmHg 77%
04:00 +11°C° 0 mm 1 m/S 748 mmHg 79%
05:00 +10°C° 0 mm 2 m/S 749 mmHg 80%
06:00 +10°C° 0 mm 2 m/S 749 mmHg 81%
07:00 +10°C° 0.4 mm 2 m/S 749 mmHg 82%
08:00 +10°C° 0.4 mm 3 m/S 749 mmHg 83%
09:00 +10°C° 0.4 mm 3 m/S 749 mmHg 83%
10:00 +10°C° 0.7 mm 3 m/S 749 mmHg 83%
11:00 +12°C° 0.7 mm 2 m/S 749 mmHg 82%
12:00 +12°C° 0.7 mm 2 m/S 749 mmHg 81%
13:00 +12°C° 1.5 mm 2 m/S 749 mmHg 83%
14:00 +10°C° 1.5 mm 2 m/S 749 mmHg 84%
15:00 +10°C° 1.5 mm 2 m/S 749 mmHg 86%
16:00 +10°C° 1.9 mm 2 m/S 749 mmHg 88%
17:00 +10°C° 1.9 mm 1 m/S 749 mmHg 90%
18:00 +10°C° 1.9 mm 1 m/S 749 mmHg 93%
19:00 +10°C° 0.3 mm 1 m/S 749 mmHg 93%
20:00 +9°C° 0.3 mm 2 m/S 749 mmHg 93%
21:00 +9°C° 0.3 mm 2 m/S 749 mmHg 94%
22:00 +9°C° 0.1 mm 2 m/S 749 mmHg 94%
23:00 +9°C° 0.1 mm 2 m/S 749 mmHg 93%

18 April, Sonntag

Zeit Temperatur Niederschläge Wind Luftdruck Luftfeuchtigkeit
00:00 +9°C° 0.1 mm 2 m/S 749 mmHg 93%
01:00 +9°C° 0 mm 3 m/S 749 mmHg 91%
02:00 +8°C° 0 mm 4 m/S 749 mmHg 88%
03:00 +8°C° 0 mm 5 m/S 749 mmHg 85%
04:00 +7°C° 0 mm 5 m/S 750 mmHg 82%
05:00 +7°C° 0 mm 5 m/S 750 mmHg 79%
06:00 +5°C° 0 mm 6 m/S 750 mmHg 77%
07:00 +7°C° 0 mm 6 m/S 751 mmHg 72%
08:00 +8°C° 0 mm 6 m/S 751 mmHg 67%
09:00 +9°C° 0 mm 6 m/S 751 mmHg 62%
10:00 +10°C° 0 mm 6 m/S 751 mmHg 59%
11:00 +11°C° 0 mm 6 m/S 752 mmHg 56%
12:00 +13°C° 0 mm 6 m/S 752 mmHg 53%
13:00 +14°C° 0 mm 5 m/S 752 mmHg 51%
14:00 +14°C° 0 mm 5 m/S 753 mmHg 48%
15:00 +14°C° 0 mm 5 m/S 753 mmHg 45%
16:00 +14°C° 0 mm 4 m/S 753 mmHg 46%
17:00 +14°C° 0 mm 4 m/S 753 mmHg 47%
18:00 +13°C° 0 mm 4 m/S 753 mmHg 48%
19:00 +12°C° 0 mm 4 m/S 754 mmHg 52%
20:00 +11°C° 0 mm 4 m/S 754 mmHg 56%
21:00 +8°C° 0 mm 4 m/S 754 mmHg 60%
22:00 +8°C° 0 mm 3 m/S 754 mmHg 62%
23:00 +8°C° 0 mm 3 m/S 755 mmHg 64%

19 April, Montag

Zeit Temperatur Niederschläge Wind Luftdruck Luftfeuchtigkeit
00:00 +7°C° 0 mm 3 m/S 755 mmHg 66%
01:00 +7°C° 0 mm 3 m/S 755 mmHg 68%
02:00 +5°C° 0 mm 3 m/S 756 mmHg 70%
03:00 +5°C° 0 mm 3 m/S 756 mmHg 72%
04:00 +5°C° 0 mm 3 m/S 756 mmHg 73%
05:00 +4°C° 0 mm 3 m/S 757 mmHg 74%
06:00 +4°C° 0 mm 4 m/S 757 mmHg 75%
07:00 +6°C° 0 mm 4 m/S 757 mmHg 71%
08:00 +7°C° 0 mm 5 m/S 757 mmHg 68%
09:00 +8°C° 0 mm 6 m/S 757 mmHg 64%
10:00 +9°C° 0 mm 6 m/S 757 mmHg 60%
11:00 +10°C° 0 mm 6 m/S 757 mmHg 57%
12:00 +11°C° 0 mm 6 m/S 758 mmHg 54%
13:00 +11°C° 0 mm 6 m/S 757 mmHg 52%
14:00 +11°C° 0 mm 6 m/S 757 mmHg 51%
15:00 +11°C° 0 mm 6 m/S 757 mmHg 50%
16:00 +10°C° 0 mm 6 m/S 757 mmHg 50%
17:00 +10°C° 0 mm 6 m/S 757 mmHg 51%
18:00 +9°C° 0 mm 6 m/S 757 mmHg 51%
19:00 +8°C° 0 mm 6 m/S 757 mmHg 53%
20:00 +7°C° 0 mm 6 m/S 757 mmHg 54%
21:00 +5°C° 0 mm 6 m/S 757 mmHg 56%
22:00 +4°C° 0 mm 6 m/S 757 mmHg 57%
23:00 +4°C° 0 mm 6 m/S 756 mmHg 58%

20 April, Dienstag

Zeit Temperatur Niederschläge Wind Luftdruck Luftfeuchtigkeit
00:00 +3°C° 0 mm 6 m/S 756 mmHg 59%
01:00 +3°C° 0 mm 7 m/S 756 mmHg 62%
02:00 +2°C° 0 mm 7 m/S 756 mmHg 65%
03:00 +1°C° 0 mm 8 m/S 756 mmHg 68%
04:00 +1°C° 0 mm 8 m/S 755 mmHg 69%
05:00 +1°C° 0 mm 8 m/S 755 mmHg 69%
06:00 +1°C° 0 mm 9 m/S 754 mmHg 70%
07:00 +2°C° 0 mm 9 m/S 754 mmHg 66%
08:00 +3°C° 0 mm 10 m/S 754 mmHg 62%
09:00 +3°C° 0 mm 10 m/S 754 mmHg 59%
10:00 +5°C° 0 mm 10 m/S 753 mmHg 57%
11:00 +6°C° 0 mm 11 m/S 753 mmHg 55%
12:00 +7°C° 0 mm 11 m/S 753 mmHg 53%
13:00 +7°C° 0 mm 11 m/S 752 mmHg 52%
14:00 +7°C° 0 mm 11 m/S 752 mmHg 51%
15:00 +7°C° 0 mm 11 m/S 752 mmHg 50%
16:00 +6°C° 0.3 mm 11 m/S 752 mmHg 54%
17:00 +4°C° 0.3 mm 11 m/S 752 mmHg 59%
18:00 +3°C° 0.3 mm 11 m/S 752 mmHg 63%
19:00 +2°C° 0.6 mm 11 m/S 752 mmHg 65%
20:00 +2°C° 0.6 mm 11 m/S 752 mmHg 67%
21:00 +1°C° 0.6 mm 11 m/S 751 mmHg 69%
22:00 +1°C° 0.1 mm 11 m/S 751 mmHg 69%
23:00 +1°C° 0.1 mm 11 m/S 751 mmHg 69%
Mehr zeigen

Wir brauchen deine Erlaubnis

Meteoprog und unser Service Anbieter werden persönliche Daten aufbewahren, so wie Cookies, Geräte Bezeichnung oder ähnliche Technologien von deinem Gerät und Prozess, so wie Persönliche Daten Inhalte und Werbungen, genauso wie social Media und den Verkehr zu analysieren.

  • Aufbewahrung und/oder Zugang zu deiner Geräte Informationen.

    Cookies, Geräte Bezeichnung oder andere Informationen, können aufbewahrt oder Zugang zu deinem Gerät erhalten, für den Grund, der oben angegeben wird.

  • Personalisierte Werbung und Inhalte, Messungen, Einblick in das Publikum und Produkt Entwicklung.

    Werbungen und Inhalte können personalisiert werden, basierend auf ein Profil. Mehr Daten können besser personalisierte Werbungen und Inhalte hinzufügen. Werbung und Inhalte können gezeigt und gemessen werden. Einblicke über das Publikum, welche die Werbung gesehen haben und den Inhalt, können abgeleitet werden. So wie Daten können genutzt werden, um es zu verbessern oder die Benutzer Erfahrung zu verbessern das System und die Software.

Wenn du “Ich stimme zu” klickst, erlaubst du uns, die Cookies zu benutzen die Geräte Bezeichnung, den Web oder ähnliche Technologien zu benutzen. Deine Settings, können in deinem Gerät bei deinem Browser geändert werden.

Für den bestimmten Zweck, berechtigten Interessen beruhen darauf, mehr als auf den Inhalt. Du kannst mehr darüber in unseren Privaten und Cookie Politik lesen.